Lid_Strength_Index
15 14 14 15 15 14 15 15 16 15 15 13 9 8 8 7 7 8 9 9 10 9 9 9 8 8 8 8 8 8 9 9 11 10 10 11 11 12 12 11 11 11 11 11
19 15 15 17 15 15 14 14 14 14 15 11 10 9 10 9 9 9 8 8 8 8 8 9 9 9 9 9 9 8 9 11 11 12 12 12 12 13 13 12 11 11 11 11
19 17 17 19 16 15 14 13 14 17 13 11 11 10 9 9 9 10 9 8 9 9 9 9 9 9 10 10 9 10 10 11 12 12 13 13 13 14 13 13 11 12 11 11
18 18 22 14 13 13 14 14 12 12 11 11 11 10 9 9 9 9 9 9 9 8 9 9 9 11 12 12 12 12 11 11 11 13 14 13 13 14 13 11 11 11 11 11
19 18 16 15 13 13 14 15 11 12 11 10 9 10 10 8 8 8 8 8 8 9 10 11 13 13 13 13 13 13 12 11 10 11 13 13 14 13 10 11 11 11 11 11
17 20 21 14 10 11 11 17 9 10 10 10 10 14 11 8 7 8 9 10 11 11 12 14 13 13 13 13 13 13 12 11 10 10 12 13 11 11 10 10 10 10 11 11
17 17 15 11 10 10 17 15 10 9 9 9 11 8 7 6 7 6 8 10 9 12 13 14 13 13 13 12 12 11 10 9 9 9 10 9 9 9 10 10 10 11 10 10
16 18 20 10 11 14 12 10 9 9 8 9 8 7 7 7 7 7 8 9 10 10 12 13 13 11 11 10 10 10 9 9 9 8 8 7 8 8 8 9 10 11 10 10
14 14 10 9 11 11 11 11 10 10 10 9 9 9 8 8 8 8 8 9 9 11 11 11 10 10 11 11 11 11 12 12 10 9 8 8 7 8 8 8 9 9 10 10
15 12 11 11 11 12 12 12 11 11 11 11 11 10 9 9 9 10 10 10 11 13 13 13 12 12 12 12 12 13 14 13 11 9 8 8 7 7 7 7 8 8 9 10
15 13 14 11 13 13 13 13 14 13 13 12 12 12 11 11 11 11 11 11 12 13 14 14 13 13 13 13 14 15 15 14 12 10 9 8 8 7 8 7 7 7 7 8
17 15 17 16 14 14 15 16 16 16 16 14 14 15 14 14 13 13 14 13 14 14 14 15 14 14 14 15 15 17 16 15 13 11 9 8 8 8 6 6 6 6 6 7
16 16 17 17 16 15 18 19 18 19 19 19 18 18 18 18 16 16 16 16 17 17 16 16 16 16 15 15 15 16 17 15 14 13 12 11 9 8 9 7 6 6 6 6
17 19 19 18 20 20 20 20 21 22 22 21 21 21 21 21 21 21 21 19 19 19 19 19 18 18 17 16 16 17 16 16 15 15 14 12 10 9 9 9 9 8 5 6
18 19 21 21 22 23 23 24 25 25 24 24 24 24 24 25 25 24 23 22 22 22 22 21 21 20 18 17 17 17 17 16 15 14 13 13 12 11 10 10 10 9 8 7
21 24 25 26 26 25 25 26 27 27 26 26 27 27 26 26 26 26 25 24 25 24 23 23 22 21 19 19 19 18 17 17 17 16 15 14 14 13 13 12 11 11 10 9
27 26 26 26 27 27 28 27 28 28 28 28 28 27 27 27 27 26 24 23 22 22 21 21 21 19 18 19 19 19 18 17 17 16 16 16 15 14 14 13 13 12 11 9
24 25 25 26 27 27 27 26 27 27 28 27 27 27 28 27 26 25 24 22 22 22 21 20 19 19 19 18 18 19 19 19 18 18 17 17 16 15 14 14 14 13 13 11
26 26 26 25 25 26 27 27 27 27 27 27 27 26 25 24 23 22 22 22 22 22 21 21 19 19 20 19 17 17 18 19 19 19 18 17 17 16 15 15 14 14 13 13
26 26 26 26 27 28 28 27 26 26 25 25 25 25 25 24 23 23 22 22 21 21 21 21 20 20 19 18 16 16 17 17 18 18 18 18 18 17 16 16 15 14 13 13
26 26 28 28 28 27 28 27 27 27 26 26 26 26 26 25 24 24 23 23 20 21 21 20 20 19 19 19 18 17 16 16 16 17 17 17 17 16 16 15 15 14 14 13
27 28 28 28 29 28 28 28 28 29 29 28 28 28 28 26 25 24 23 23 22 22 22 20 20 19 19 19 19 18 18 17 16 15 15 15 15 15 14 14 14 13 12 11
27 28 27 30 30 29 30 30 33 31 31 30 29 28 27 26 25 24 24 22 23 23 22 20 20 18 19 19 20 19 19 19 18 18 17 16 16 15 15 14 13 13 13 13
28 28 28 28 32 31 30 27 30 29 30 30 29 29 28 26 24 21 21 23 24 24 23 21 21 18 19 20 20 20 20 20 19 19 18 18 17 17 17 16 16 15 15 15
29 30 31 31 29 26 29 27 31 29 27 26 25 25 26 24 26 23 24 24 22 22 22 21 20 21 20 20 20 20 20 21 20 19 19 19 18 18 17 17 17 16 16 16
27 27 26 29 29 29 28 29 29 28 27 26 24 23 23 23 23 24 23 24 23 23 22 22 22 23 23 22 21 21 20 20 21 20 20 20 19 19 18 18 17 17 17 16
28 30 28 27 26 28 29 30 31 29 27 27 27 25 24 24 24 25 25 23 23 23 23 22 22 23 24 24 23 22 21 21 21 21 21 21 20 20 19 19 18 18 17 17